Location: Campavaglio
(41.1333°N, 9.2333°E)
Time: 20:49:02
(UTC+00:00)

CZ-4C R/B - Pass Details

Date: 07 June 2020
Orbit: 634 x 1368 km, 63.4° (Epoch: 13 July)

Event Time Altitude Azimuth Distance (km) Brightness Sun altitude
Exits shadow 01:16:44 - 279° (W) 2,756 4.7 -20.8°
Reaches altitude 10° 01:18:25 10° 292° (WNW) 2,358 4.5 -20.6°
Maximum altitude 01:21:53 17° 332° (NNW) 2,052 4.6 -20.3°
Drops below altitude 10° 01:25:44 10° 11° (NNE) 2,664 5.8 -19.9°
Sets 01:29:36 0° 31° (NNE) 3,780 7.2 -19.6°
